Weather History for Knox, IN

Change the Weather History Date:

Sunday, September 23, 2012

  Actual Average (KVPZ) Record (KVPZ)
Temperature  
Mean Temperature 46 °F 61 °F  
Max Temperature 93 °F 72 °F 90 °F (2010)
Min Temperature 33 °F 50 °F 39 °F (2012)
Degree Days  
Heating Degree Days 19 6  
Month to date heating degree days 64  
Since 1 July heating degree days 81  
Cooling Degree Days 0 1  
Month to date cooling degree days 58  
Year to date cooling degree days 694  
Moisture  
Dew Point 35 °F    
Average Humidity 70    
Maximum Humidity 98    
Minimum Humidity 36    
Precipitation  
Precipitation 0.00 in 0.10 in 0.31 in (2000)
Month to date precipitation 2.46  
Year to date precipitation 28.00  
Sea Level Pressure  
Sea Level Pressure 30.21 in    
Wind  
Wind Speed 6 mph (WNW)    
Max Wind Speed 15 mph    
Max Gust Speed 23 mph    
Visibility 10 miles    
Events      
T = Trace of Precipitation, MM = Missing Value Source: NWS Daily Summary

Daily Weather History Graph

Daily Weather History Graph

Search for Another Location

Airport:

Trip Planner

Search our weather history database for the weather conditions in past years. The results will help you decide how hot, cold, wet, or windy it might be!

Date:

Astronomy

Sep. 23, 2012 Rise Set
Actual Time 6:35 AM CDT 6:41 PM CDT
Civil Twilight 6:08 AM CDT 7:08 PM CDT
Nautical Twilight 5:35 AM CDT 7:41 PM CDT
Astronomical Twilight 5:02 AM CDT 8:13 PM CDT
Moon 2:45 PM CDT (9/23) No Moon Set
Length of Visible Light 13h 00m
Length of Day
12h 05m
First Quarter, 60% of the Moon is Illuminated
Sep 23
First Quarter
Sep 29
Full
Oct 8
Last Quarter
Oct 15
New
Oct 21
First Quarter

Hourly Weather History & Observations

Time (CDT) Temp. Windchill Dew Point Humidity Pressure Visibility Wind Dir Wind Speed Gust Speed Precip Events Conditions
12:15 AM 41.5 °F 37.8 °F 38.7 °F 89% 30.15 in 10.0 mi WSW 5.8 mph - N/A   Clear
12:35 AM 41.2 °F 37.3 °F 38.5 °F 90% 30.15 in 10.0 mi WSW 5.8 mph - N/A   Clear
12:55 AM 41.2 °F 37.3 °F 38.7 °F 91% 30.15 in 10.0 mi WSW 5.8 mph - N/A   Clear
1:15 AM 41.2 °F 38.2 °F 38.7 °F 91% 30.15 in 10.0 mi West 4.6 mph - N/A   Clear
1:35 AM 41.5 °F 38.6 °F 38.7 °F 89% 30.15 in 10.0 mi West 4.6 mph - N/A   Clear
1:55 AM 41.0 °F 37.1 °F 38.5 °F 91% 30.15 in 10.0 mi WSW 5.8 mph - N/A   Clear
2:15 AM 40.8 °F 36.9 °F 38.7 °F 92% 30.15 in 10.0 mi West 5.8 mph - N/A   Clear
2:35 AM 40.6 °F 36.7 °F 38.7 °F 93% 30.16 in 10.0 mi West 5.8 mph - N/A   Clear
2:55 AM 40.8 °F 37.8 °F 38.7 °F 92% 30.16 in 10.0 mi West 4.6 mph - N/A   Clear
3:15 AM 40.1 °F 36.9 °F 38.1 °F 93% 30.16 in 10.0 mi WSW 4.6 mph - N/A   Clear
3:35 AM 39.4 °F 36.1 °F 38.1 °F 95% 30.17 in 10.0 mi WSW 4.6 mph - N/A   Clear
3:55 AM 39.2 °F 37.0 °F 37.8 °F 95% 30.17 in 10.0 mi West 3.5 mph - N/A   Clear
4:15 AM 38.7 °F 36.3 °F 37.6 °F 96% 30.17 in 10.0 mi West 3.5 mph - N/A   Clear
4:35 AM 38.3 °F 35.9 °F 37.2 °F 96% 30.18 in 10.0 mi West 3.5 mph - N/A   Clear
4:55 AM 38.5 °F 36.1 °F 37.4 °F 96% 30.18 in 10.0 mi West 3.5 mph - N/A   Clear
5:15 AM 39.4 °F 35.2 °F 38.1 °F 95% 30.18 in 10.0 mi West 5.8 mph - N/A   Clear
5:35 AM 40.1 °F 36.1 °F 38.5 °F 94% 30.19 in 10.0 mi West 5.8 mph - N/A   Clear
6:15 AM 37.4 °F 34.9 °F 36.5 °F 97% 30.20 in 10.0 mi WSW 3.5 mph - N/A   Clear
6:35 AM 36.7 °F 32.0 °F 36.1 °F 98% 30.20 in 10.0 mi WSW 5.8 mph - N/A   Clear
6:55 AM 37.2 °F 33.6 °F 36.5 °F 97% 30.21 in 10.0 mi WSW 4.6 mph - N/A   Clear
7:15 AM 37.8 °F 33.3 °F 37.0 °F 97% 30.21 in 10.0 mi WSW 5.8 mph - N/A   Clear
7:35 AM 39.4 °F 36.1 °F 38.5 °F 97% 30.21 in 10.0 mi West 4.6 mph - N/A   Clear
8:15 AM 45.0 °F 40.6 °F 40.8 °F 85% 30.22 in 10.0 mi West 8.1 mph - N/A   Clear
8:35 AM 47.7 °F - 41.0 °F 78% 30.23 in 10.0 mi West 6.9 mph - N/A   Clear
8:55 AM 50.2 °F - 39.9 °F 68% 30.23 in 10.0 mi West 6.9 mph - N/A   Clear
9:15 AM 52.5 °F - 39.9 °F 62% 30.23 in 10.0 mi West 9.2 mph - N/A   Clear
9:35 AM 54.0 °F - 38.3 °F 55% 30.23 in 10.0 mi NW 9.2 mph 16.1 mph N/A   Clear
9:55 AM 55.0 °F - 36.1 °F 49% 30.23 in 10.0 mi NW 9.2 mph 16.1 mph N/A   Clear
10:15 AM 55.2 °F - 35.4 °F 47% 30.23 in 10.0 mi WNW 15.0 mph 18.4 mph N/A   Mostly Cloudy
10:55 AM 54.5 °F - 34.2 °F 46% 30.24 in 10.0 mi WNW 12.7 mph 19.6 mph N/A   Mostly Cloudy
11:15 AM 55.0 °F - 32.5 °F 43% 30.24 in 10.0 mi NW 13.8 mph 18.4 mph N/A   Mostly Cloudy
11:35 AM 56.1 °F - 32.2 °F 40% 30.24 in 10.0 mi WNW 13.8 mph 19.6 mph N/A   Mostly Cloudy
11:55 AM 56.8 °F - 31.8 °F 39% 30.24 in 10.0 mi WNW 15.0 mph - N/A   Mostly Cloudy
12:15 PM 57.0 °F - 31.3 °F 38% 30.24 in 10.0 mi WNW 9.2 mph 23.0 mph N/A   Mostly Cloudy
12:35 PM 57.4 °F - 31.6 °F 38% 30.23 in 10.0 mi NW 10.4 mph 17.3 mph N/A   Mostly Cloudy
12:55 PM 57.6 °F - 31.3 °F 37% 30.23 in 10.0 mi NNW 13.8 mph 18.4 mph N/A   Mostly Cloudy
1:15 PM 58.6 °F - 31.3 °F 36% 30.23 in 10.0 mi NW 11.5 mph 18.4 mph N/A   Scattered Clouds
1:55 PM 57.6 °F - 31.3 °F 37% 30.22 in 10.0 mi West 9.2 mph - N/A   Mostly Cloudy
2:15 PM 58.3 °F - 31.3 °F 36% 30.22 in 10.0 mi NW 8.1 mph 17.3 mph N/A   Mostly Cloudy
2:35 PM 57.9 °F - 32.0 °F 37% 30.22 in 10.0 mi NNW 6.9 mph - N/A   Mostly Cloudy
2:55 PM 57.4 °F - 31.5 °F 37% 30.21 in 10.0 mi NNW 8.1 mph 16.1 mph N/A   Scattered Clouds
3:15 PM 58.5 °F - 31.8 °F 37% 30.21 in 10.0 mi NNW 10.4 mph - N/A   Scattered Clouds
3:35 PM 58.3 °F - 32.0 °F 37% 30.21 in 10.0 mi NW 8.1 mph 21.9 mph N/A   Scattered Clouds
3:55 PM 58.8 °F - 32.2 °F 37% 30.20 in 10.0 mi NNW 9.2 mph - N/A   Scattered Clouds
4:15 PM 57.9 °F - 32.4 °F 38% 30.20 in 10.0 mi NW 5.8 mph - N/A   Scattered Clouds
4:35 PM 58.3 °F - 32.2 °F 37% 30.20 in 10.0 mi NNW 11.5 mph 16.1 mph N/A   Clear
4:55 PM 57.9 °F - 32.4 °F 38% 30.20 in 10.0 mi North 4.6 mph - N/A   Clear
5:15 PM 57.7 °F - 32.2 °F 38% 30.20 in 10.0 mi NNW 10.4 mph - N/A   Clear
5:35 PM 56.7 °F - 32.9 °F 41% 30.20 in 10.0 mi North 8.1 mph - N/A   Clear
6:15 PM 54.3 °F - 33.4 °F 45% 30.20 in 10.0 mi NNE 6.9 mph - N/A   Clear
6:35 PM 51.8 °F - 33.8 °F 50% 30.20 in 10.0 mi NNE 5.8 mph - N/A   Clear
6:55 PM 47.7 °F - 34.0 °F 59% 30.21 in 10.0 mi NNE 4.6 mph - N/A   Clear
7:15 PM 45.1 °F 43.7 °F 33.8 °F 65% 30.21 in 10.0 mi ENE 3.5 mph - N/A   Clear
7:35 PM 44.2 °F 42.7 °F 34.2 °F 68% 30.22 in 10.0 mi ENE 3.5 mph - N/A   Clear
7:55 PM 43.2 °F 41.5 °F 34.3 °F 71% 30.23 in 10.0 mi ENE 3.5 mph - N/A   Clear
8:15 PM 41.0 °F - 34.5 °F 78% 30.23 in 10.0 mi Calm Calm - N/A   Clear
8:35 PM 40.1 °F - 35.6 °F 84% 30.23 in 10.0 mi Calm Calm - N/A   Clear
8:55 PM 38.8 °F - 35.4 °F 88% 30.24 in 10.0 mi Calm Calm - N/A   Clear
9:15 PM 39.2 °F - 35.6 °F 87% 30.24 in 10.0 mi Calm Calm - N/A   Clear
9:35 PM 37.0 °F - 34.7 °F 91% 30.24 in 10.0 mi Calm Calm - N/A   Clear
9:55 PM 36.1 °F - 34.5 °F 94% 30.24 in 10.0 mi Calm Calm - N/A   Clear
10:15 PM 35.6 °F - 34.0 °F 94% 30.24 in 10.0 mi Calm Calm - N/A   Clear
10:35 PM 36.1 °F - 34.5 °F 94% 30.24 in 10.0 mi Calm Calm - N/A   Clear
10:55 PM 35.4 °F - 34.2 °F 95% 30.25 in 10.0 mi Calm Calm - N/A   Clear
11:35 PM 34.5 °F 31.6 °F 33.6 °F 97% 30.24 in 10.0 mi South 3.5 mph - N/A   Clear
11:55 PM 33.4 °F - 32.7 °F 97% 30.23 in 10.0 mi Calm Calm - N/A   Clear